Weather History for Bozeman, MT

Change the Weather History Date:

Sunday, February 2, 2014

  Actual Average Record
Temperature  
Mean Temperature 4 °F 25 °F  
Max Temperature 21 °F 37 °F 56 °F (1991)
Min Temperature -13 °F 13 °F -42 °F (1996)
Degree Days  
Heating Degree Days 61    
Month to date heating degree days 123  
Since 1 July heating degree days 4749  
Cooling Degree Days 0    
Month to date cooling degree days 0  
Year to date cooling degree days 0  
Moisture  
Dew Point 0 °F    
Average Humidity 69    
Maximum Humidity 87    
Minimum Humidity 51    
Precipitation  
Precipitation 0.00 in 0.02 in 0.22 in (1952)
Month to date precipitation T 0.03  
Year to date precipitation 0.29 0.51  
Snow  
Snow 0.00 in 0.20 in 2.00 in (1982)
Month to date snowfall 0.4 0.3  
Since 1 July snowfall 12.7 17.7  
Snow Depth 4.00 in    
Sea Level Pressure  
Sea Level Pressure 30.20 in    
Wind  
Wind Speed 4 mph (SE)    
Max Wind Speed 14 mph    
Max Gust Speed 16 mph    
Visibility 10 miles    
Events      
T = Trace of Precipitation, MM = Missing Value Source: NWS Daily Summary

Daily Weather History Graph

Daily Weather History Graph

Search for Another Location

Airport:

Trip Planner

Search our weather history database for the weather conditions in past years. The results will help you decide how hot, cold, wet, or windy it might be!

Date:

Astronomy

Feb. 02, 2014 Rise Set
Actual Time 7:45 AM MST 5:32 PM MST
Civil Twilight 7:13 AM MST 6:03 PM MST
Nautical Twilight 6:37 AM MST 6:39 PM MST
Astronomical Twilight 6:03 AM MST 7:14 PM MST
Moon 9:01 AM MST (2/2) 9:34 PM MST (2/2)
Length of Visible Light 10h 50m
Length of Day
9h 47m
Waxing Crescent, 12% of the Moon is Illuminated
Feb 2
Waxing Crescent
Feb 6
First Quarter
Feb 14
Full
Feb 22
Last Quarter
Mar 1
New

Hourly Weather History & Observations

Time (MST) Temp. Windchill Dew Point Humidity Pressure Visibility Wind Dir Wind Speed Gust Speed Precip Events Conditions
12:56 AM -8.0 °F -23.9 °F -13.0 °F 79% 30.27 in 10.0 mi South 8.1 mph - N/A   Clear
1:56 AM -9.0 °F -18.2 °F -15.0 °F 75% 30.28 in 10.0 mi West 3.5 mph - N/A   Clear
2:56 AM -8.0 °F - -14.1 °F 75% 30.29 in 10.0 mi Calm Calm - N/A   Clear
3:56 AM -11.0 °F -26.2 °F -17.0 °F 75% 30.30 in 10.0 mi SSE 6.9 mph - N/A   Clear
4:56 AM -4.0 °F -19.0 °F -9.9 °F 76% 30.29 in 10.0 mi SSE 8.1 mph - N/A   Clear
5:56 AM -11.0 °F -24.6 °F -16.1 °F 78% 30.32 in 10.0 mi SE 5.8 mph - N/A   Clear
6:56 AM -6.0 °F -20.1 °F -9.9 °F 83% 30.32 in 10.0 mi SE 6.9 mph - N/A   Clear
7:56 AM -5.1 °F - -9.9 °F 80% 30.33 in 10.0 mi Calm Calm - N/A   Overcast
8:56 AM 1.9 °F - -2.0 °F 83% 30.31 in 10.0 mi Calm Calm - N/A   Overcast
9:56 AM 9.0 °F 2.4 °F 1.9 °F 73% 30.28 in 10.0 mi ESE 3.5 mph - N/A   Overcast
10:56 AM 10.9 °F 4.7 °F 3.0 °F 70% 30.28 in 10.0 mi NNW 3.5 mph - N/A   Overcast
11:56 AM 17.1 °F - 3.9 °F 56% 30.23 in 10.0 mi Calm Calm - N/A   Mostly Cloudy
12:56 PM 19.0 °F - 5.0 °F 54% 30.20 in 10.0 mi Calm Calm - N/A   Scattered Clouds
1:56 PM 19.9 °F - 6.1 °F 55% 30.17 in 10.0 mi Calm Calm - N/A   Clear
2:56 PM 19.0 °F 13.9 °F 6.1 °F 57% 30.15 in 10.0 mi ESE 3.5 mph - N/A   Clear
3:56 PM 18.0 °F - 5.0 °F 57% 30.16 in 10.0 mi Calm Calm - N/A   Clear
4:56 PM 12.9 °F 6.9 °F 3.9 °F 67% 30.14 in 10.0 mi ESE 3.5 mph - N/A   Mostly Cloudy
5:56 PM 15.1 °F - 6.1 °F 68% 30.17 in 9.0 mi Calm Calm - N/A   Overcast
6:56 PM 14.0 °F 8.2 °F 7.0 °F 74% 30.15 in 10.0 mi East 3.5 mph - N/A   Overcast
7:56 PM 16.0 °F 10.4 °F 8.1 °F 71% 30.12 in 10.0 mi South 3.5 mph - N/A   Overcast
8:56 PM 17.1 °F 10.0 °F 10.0 °F 74% 30.09 in 10.0 mi SSE 4.6 mph - N/A   Overcast
9:56 PM 18.0 °F 8.7 °F 10.9 °F 74% 30.05 in 10.0 mi South 6.9 mph - N/A   Overcast
10:56 PM 21.0 °F 9.3 °F 12.0 °F 68% 30.02 in 10.0 mi SSE 11.5 mph - N/A   Overcast
11:56 PM 19.9 °F 12.1 °F 12.0 °F 71% 29.99 in 10.0 mi ESE 5.8 mph - N/A   Overcast